Temperature
18 18 18 18 17 17 16 16 17 17 16 16 16 16 16 16 17 17 17 17 16 16 16 17 17 17 17 17 17 17 17 17 17 17 17 17 17 17 17 17 17 17 17
17 18 18 18 17 17 16 17 17 17 16 16 16 16 16 16 16 16 16 16 16 16 16 16 16 17 16 17 17 17 17 17 17 17 17 17 17 17 17 17 17 17 17
17 17 17 17 17 17 16 17 17 17 16 16 16 16 16 16 16 16 16 16 16 16 16 16 16 17 17 16 16 16 16 16 16 16 16 16 17 17 17 17 17 16 16
17 17 17 17 17 17 17 17 17 16 16 16 16 16 16 16 16 16 16 16 16 16 16 16 16 16 17 16 16 16 16 16 16 16 16 17 17 16 16 16 16 16 16
17 17 17 17 17 17 17 17 17 16 16 16 16 16 16 16 16 16 16 16 16 16 16 16 16 16 16 16 16 16 16 16 16 16 16 16 16 16 16 16 16 16 16
17 17 17 17 17 17 17 17 17 16 16 16 16 16 16 16 16 16 16 16 16 16 16 16 17 16 16 16 16 16 16 16 16 16 16 16 17 17 16 16 16 16 16
17 17 17 17 17 17 17 17 16 16 16 16 16 16 16 15 15 15 16 16 16 16 16 16 16 16 16 16 16 16 16 16 16 16 16 16 16 16 16 16 16 16 16
17 17 17 17 17 17 17 17 17 16 16 16 16 16 15 15 15 15 15 15 16 16 16 16 16 16 16 16 16 16 16 16 16 16 16 16 16 16 16 16 16 15 15
17 17 17 17 17 17 17 17 16 16 16 16 15 15 15 16 15 15 15 15 15 15 16 16 16 16 16 16 16 16 16 16 16 16 16 16 16 16 15 15 15 15 15
17 17 17 17 17 17 16 16 16 16 15 15 15 15 15 16 15 15 15 15 15 15 15 15 15 15 15 15 16 16 16 16 16 16 16 16 16 15 15 15 15 15 15
17 17 17 16 16 16 16 16 16 16 15 15 15 15 14 15 15 15 15 15 15 15 15 15 15 15 15 15 15 15 15 15 16 16 16 16 16 16 15 15 15 15 15
17 17 16 16 16 16 16 16 15 15 15 15 15 15 15 14 15 15 15 15 15 15 15 15 15 15 15 15 15 15 15 15 15 15 15 16 16 15 15 15 15 15 14
17 16 16 16 16 16 16 15 15 15 15 15 15 15 15 15 15 15 15 15 15 15 15 15 15 15 15 15 15 15 15 15 15 15 15 15 15 15 15 15 15 14 14
16 16 16 16 16 15 15 15 15 14 14 14 14 14 14 14 14 14 14 14 14 14 15 15 16 16 16 15 15 15 15 15 15 15 15 15 15 15 15 15 14 14 14
16 16 16 16 16 15 15 15 15 14 14 14 14 14 14 14 14 14 14 14 14 14 14 16 16 16 16 16 15 15 15 15 15 15 15 15 15 15 15 15 14 14 14
16 16 16 16 15 15 14 14 14 14 14 14 14 14 14 14 14 14 14 14 14 14 14 15 16 16 16 16 15 15 15 14 15 15 15 15 15 15 15 15 14 14 14
16 16 16 15 15 15 14 14 14 14 14 14 14 13 13 13 13 13 13 13 13 13 14 14 15 15 15 15 15 15 15 15 15 14 14 14 14 14 14 14 14 14 14
16 16 16 15 15 15 14 14 14 14 14 14 13 13 13 13 13 13 13 13 13 13 13 14 14 15 15 15 15 15 15 15 14 14 14 14 14 14 14 14 14 14 14
16 16 16 15 15 15 14 14 14 14 14 14 14 13 13 13 13 13 13 13 13 13 13 13 14 14 14 15 15 15 15 15 14 14 14 14 14 14 14 14 14 14 14
16 16 16 15 15 15 15 14 14 14 14 14 14 13 13 13 13 12 13 13 13 13 13 13 13 13 14 14 14 15 15 15 15 14 14 14 14 14 14 14 14 14 14
16 16 16 16 15 15 15 14 14 14 14 14 14 13 13 13 13 12 12 12 12 12 12 13 13 13 13 13 14 14 14 14 14 14 14 14 14 14 13 13 13 13 14
16 16 16 16 15 15 15 15 14 14 14 14 14 14 13 13 13 13 12 12 12 12 12 12 12 12 13 13 13 13 13 14 14 14 14 14 14 14 14 13 13 13 13
16 16 16 15 15 15 15 15 14 14 14 14 14 14 13 13 13 13 13 13 13 12 12 12 12 12 12 12 12 13 13 13 14 14 13 14 14 14 14 13 13 13 13
15 15 15 14 14 14 14 14 14 14 14 14 14 14 14 14 13 13 13 13 13 13 12 12 12 12 12 12 12 12 12 12 13 13 13 13 14 14 14 13 13 13 13
13 13 13 13 13 14 14 14 14 14 14 14 14 14 14 14 13 13 13 13 13 13 13 12 12 12 12 12 11 12 12 12 12 13 13 13 13 13 14 14 13 13 13
12 12 12 12 12 13 13 13 13 13 13 13 13 14 14 14 14 13 13 13 13 13 13 13 12 12 12 12 12 12 12 12 12 12 12 12 13 12 13 13 13 13 13
Wind_Speed
3 4 3 4 4 3 2 1 2 2 5 6 5 4 3 3 3 3 5 5 3 1 3 5 4 3 3 4 4 5 6 7 8 8 7 5 4 3 2 2 2 2 3
5 4 3 4 4 5 4 2 3 3 3 5 5 4 3 3 4 5 5 6 5 3 2 3 4 3 3 3 3 4 5 5 6 6 5 4 3 2 1 1 2 2 3
8 5 4 4 4 6 5 3 4 4 3 3 4 4 3 3 4 5 6 6 6 6 4 4 5 5 5 6 6 7 6 6 5 5 4 4 2 2 1 1 1 2 2
11 7 5 5 5 6 5 4 4 3 3 3 3 2 2 2 2 4 5 6 7 7 8 8 7 6 6 6 6 6 6 5 5 4 4 3 2 2 3 3 2 1 1
13 8 5 5 5 4 3 4 3 4 4 4 3 1 1 1 0 1 3 5 6 7 8 10 11 10 8 6 5 4 4 4 3 3 2 2 2 3 4 4 2 1 1
12 9 5 5 5 4 4 4 4 3 3 4 3 3 2 1 0 0 1 2 3 5 6 7 8 9 9 8 6 5 4 3 3 2 2 2 2 3 4 4 3 3 3
10 8 4 5 5 5 5 5 4 4 3 3 3 2 2 2 0 1 0 0 1 2 3 4 4 4 6 8 9 8 7 7 6 4 2 1 1 1 2 3 3 4 4
8 7 6 6 6 5 5 6 4 4 3 4 4 3 1 3 2 0 1 2 2 1 1 1 1 2 3 4 7 8 8 8 7 6 5 4 2 1 1 1 3 4 4
7 6 6 5 6 6 6 7 6 6 4 2 2 4 4 4 2 2 2 2 2 2 2 3 3 2 1 1 2 4 5 6 5 5 5 5 5 3 2 2 2 2 3
6 6 6 6 6 5 6 7 7 5 5 4 2 1 2 4 3 1 2 2 2 4 4 3 5 6 5 3 2 1 2 3 4 4 4 6 7 8 8 7 7 8 8
4 5 5 5 6 5 6 6 7 7 6 6 5 3 2 1 2 3 2 2 2 3 4 5 5 7 8 7 5 4 3 3 3 3 4 5 6 7 8 8 8 8 7
3 4 4 4 5 4 5 6 6 8 8 7 6 5 5 4 4 3 3 2 3 3 3 4 5 7 10 10 9 7 5 4 3 3 3 4 4 5 6 6 6 6 5
2 4 4 4 3 4 4 4 5 6 7 8 9 7 6 5 4 4 4 3 2 2 2 3 5 8 10 12 11 10 8 7 5 4 2 2 3 4 4 5 5 5 5
3 4 4 4 3 3 3 4 4 5 5 8 9 9 6 6 5 5 5 5 2 2 3 5 3 7 11 13 15 13 11 10 9 7 5 3 2 1 2 3 4 4 4
3 4 4 4 3 2 2 3 2 4 4 6 7 8 6 6 6 6 5 5 5 3 4 4 4 5 10 12 14 14 13 13 12 10 9 7 5 3 2 1 1 2 4
4 5 4 4 3 2 2 2 2 2 3 3 4 6 6 5 6 6 7 6 6 6 5 3 4 3 5 8 13 14 15 14 13 13 11 9 7 5 4 3 2 2 4
5 5 5 5 4 3 3 2 1 1 2 2 3 4 6 6 6 7 7 7 7 7 8 5 3 2 5 5 6 11 13 13 12 14 13 12 10 8 7 6 4 3 3
5 5 6 5 5 5 4 4 3 2 2 1 2 2 3 4 6 6 7 9 8 8 8 8 4 3 4 4 4 5 8 10 12 14 15 14 13 12 11 9 7 5 4
5 5 5 5 5 5 5 5 4 3 3 2 2 2 2 3 4 5 6 7 8 8 8 7 5 3 2 2 2 3 4 5 8 11 14 16 16 15 14 12 10 8 6
5 5 6 6 5 5 5 5 5 4 4 3 3 3 2 3 3 3 4 5 6 7 8 7 5 4 3 2 3 3 3 5 6 7 11 13 16 17 17 15 13 11 10
4 5 5 6 5 5 6 7 6 6 5 4 3 3 3 4 4 4 3 3 4 5 6 6 6 5 5 4 4 4 4 3 4 6 5 7 10 11 14 17 16 15 13
2 3 5 5 5 5 8 11 9 6 6 6 5 4 4 4 5 5 6 5 5 4 4 4 5 6 7 5 4 4 3 2 3 3 5 5 6 9 11 14 17 17 17
3 2 2 3 5 6 9 9 12 7 7 6 6 5 3 4 5 4 5 6 6 7 6 3 3 4 5 6 6 5 4 4 4 3 4 4 4 7 10 14 18 19 19
5 4 4 3 3 5 6 8 8 7 6 6 6 6 5 5 5 5 5 5 5 5 6 5 4 3 3 3 3 3 3 3 3 3 5 4 3 5 4 10 16 19 21
6 5 5 5 4 5 7 5 4 4 4 5 5 6 6 6 8 7 5 5 6 6 7 8 8 6 6 6 4 2 2 2 3 3 5 4 3 3 3 3 9 16 20
6 6 7 7 7 7 11 10 3 2 3 3 3 4 7 8 8 7 6 6 7 6 4 4 5 6 5 5 6 5 4 4 3 3 4 4 2 2 3 2 1 5 10
Wind_Direction
169 174 180 172 154 142 134 52 38 88 118 118 111 102 75 46 29 18 358 349 338 268 196 179 168 181 200 201 188 180 172 175 175 170 164 159 151 130 103 92 99 90 59
180 177 184 187 179 170 168 142 105 111 114 120 112 112 97 66 44 34 26 21 28 47 89 129 132 125 121 130 135 139 142 153 164 166 163 166 168 160 113 96 122 103 58
193 187 189 203 191 169 164 139 115 111 113 116 125 131 118 85 62 41 35 38 41 47 65 89 100 104 98 99 97 95 102 111 120 135 145 156 171 212 267 278 185 128 56
201 191 196 213 191 162 160 150 138 124 130 141 148 154 129 110 73 49 44 43 51 55 59 71 80 90 97 98 100 100 100 101 108 120 137 153 185 246 272 278 243 175 43
205 197 202 212 187 160 166 171 152 147 160 165 158 122 102 161 107 48 48 44 55 64 64 64 66 70 77 84 90 97 107 121 132 140 154 176 210 249 271 276 262 238 319
204 200 203 204 185 168 178 179 164 151 152 156 133 87 40 3 297 44 30 34 46 62 70 69 65 63 65 65 66 72 86 111 130 148 168 193 226 248 261 271 276 285 298
197 195 199 191 182 194 193 182 161 158 145 140 111 72 21 25 59 217 329 349 345 47 75 69 64 64 62 61 62 65 71 80 85 87 100 139 203 255 268 275 286 294 301
188 191 186 187 187 189 184 180 167 158 158 158 140 123 61 335 314 253 215 214 239 276 210 117 77 60 63 64 60 66 67 69 76 74 71 67 74 69 344 316 310 313 315
183 184 183 182 186 182 187 185 179 170 170 180 161 149 158 210 259 300 263 217 214 235 247 242 228 217 181 98 68 68 70 64 71 72 67 65 64 64 38 358 333 352 37
182 185 181 180 184 186 191 190 183 174 164 177 183 161 153 154 155 249 303 265 221 229 236 237 228 223 216 212 213 176 108 79 70 70 67 68 70 67 58 55 64 66 68
174 178 180 182 189 193 196 190 181 183 181 178 175 163 139 128 134 149 245 297 292 246 228 227 228 224 221 219 219 217 187 127 85 67 58 57 60 61 58 60 62 62 67
159 172 177 184 193 196 198 195 192 191 195 191 191 184 172 172 179 160 178 236 262 269 236 222 220 220 218 218 222 223 212 185 140 99 69 51 49 50 48 47 46 45 45
167 180 170 176 188 199 199 191 193 202 199 201 204 205 198 191 165 158 162 183 232 274 278 241 220 215 213 214 219 221 218 210 193 168 140 97 61 52 43 35 29 21 12
177 172 168 169 177 183 187 187 197 207 204 210 215 211 204 199 180 178 171 164 190 268 274 260 233 214 212 208 215 215 216 215 209 199 192 186 165 99 64 49 34 14 357
167 162 155 144 142 153 168 175 205 216 208 210 214 212 207 200 193 194 186 175 175 211 253 252 242 223 212 210 210 207 212 215 213 210 207 205 201 189 171 134 26 349 336
159 150 145 145 149 154 157 167 202 213 207 211 206 206 210 205 201 200 201 195 191 197 229 245 240 230 198 212 212 207 211 216 218 215 215 215 213 211 211 216 242 300 319
164 163 165 169 175 177 174 168 191 189 197 218 214 208 213 205 208 210 207 202 204 203 227 241 230 218 194 203 202 204 211 214 220 220 220 221 221 222 223 226 234 258 293
181 182 176 179 184 184 183 185 197 184 181 209 228 220 227 218 214 213 211 212 211 208 216 231 227 211 212 205 193 196 206 215 220 223 223 225 226 226 226 226 228 235 250
193 194 190 195 198 193 191 193 194 190 189 203 211 215 233 227 227 221 218 219 216 213 210 217 216 194 182 155 161 199 203 212 220 226 228 229 229 228 228 227 228 231 238
200 206 211 213 211 203 197 192 192 194 192 198 202 205 212 219 236 241 235 230 221 215 211 214 210 191 182 161 165 188 208 211 222 220 225 227 228 231 231 231 230 231 233
221 213 215 222 217 209 206 195 194 196 196 202 207 211 219 226 234 232 232 233 225 227 221 216 212 198 192 179 194 187 207 201 226 215 218 224 223 228 230 232 232 231 228
268 230 224 225 222 228 224 207 192 192 197 204 215 226 240 249 258 259 252 233 216 220 231 231 222 215 208 193 174 174 174 168 251 202 200 232 211 229 232 229 229 226 225
346 308 267 245 245 250 251 235 210 191 196 203 208 216 234 239 248 248 263 260 247 236 224 212 226 224 197 186 174 178 186 193 217 184 174 240 206 233 235 231 229 228 227
8 358 347 325 296 293 281 253 231 202 199 206 206 208 223 248 247 237 242 252 252 246 234 222 210 200 181 164 168 180 196 215 228 188 177 236 219 231 235 230 230 228 226
14 12 9 9 3 347 347 313 250 190 203 212 209 209 216 238 254 243 223 240 256 258 248 233 222 217 210 210 206 196 206 221 244 220 192 221 245 240 248 243 235 230 227
22 26 32 28 25 13 11 10 346 174 200 209 208 220 229 237 255 247 212 218 239 249 230 226 230 233 229 233 233 224 218 225 227 242 192 200 234 226 286 273 270 237 230
Height
1540 1541 1542 1543 1545 1547 1549 1551 1552 1553 1554 1555 1555 1555 1554 1554 1553 1553 1554 1554 1554 1554 1555 1555 1556 1556 1557 1558 1558 1559 1560 1561 1562 1563 1564 1564 1565 1565 1565 1565 1565 1565 1565
1540 1541 1542 1543 1545 1547 1549 1551 1552 1553 1554 1555 1555 1555 1554 1554 1554 1553 1554 1554 1554 1554 1555 1555 1556 1556 1556 1557 1558 1559 1559 1560 1561 1562 1562 1563 1564 1564 1565 1565 1564 1564 1565
1540 1541 1542 1543 1545 1547 1549 1550 1551 1553 1554 1554 1554 1554 1555 1555 1554 1554 1554 1554 1554 1555 1555 1555 1555 1556 1556 1557 1557 1558 1559 1559 1560 1561 1561 1562 1563 1563 1564 1563 1563 1563 1563
1538 1540 1542 1543 1545 1547 1548 1549 1550 1552 1553 1554 1554 1554 1555 1555 1555 1555 1555 1555 1555 1555 1555 1556 1556 1556 1556 1556 1557 1557 1558 1559 1559 1560 1560 1560 1561 1562 1562 1562 1562 1562 1562
1536 1538 1540 1542 1544 1545 1547 1548 1549 1550 1552 1553 1553 1554 1554 1554 1555 1555 1555 1555 1555 1555 1556 1556 1556 1556 1556 1556 1557 1557 1557 1557 1558 1558 1558 1559 1559 1560 1560 1561 1561 1561 1561
1534 1536 1537 1539 1541 1543 1544 1546 1548 1549 1550 1552 1552 1553 1553 1554 1554 1554 1554 1555 1555 1555 1556 1556 1556 1556 1556 1557 1557 1557 1557 1557 1557 1557 1557 1557 1558 1558 1559 1559 1560 1560 1560
1531 1533 1535 1536 1538 1540 1542 1543 1545 1546 1548 1549 1550 1551 1552 1552 1553 1553 1554 1554 1554 1554 1555 1556 1556 1556 1556 1557 1557 1557 1557 1557 1558 1557 1557 1557 1557 1557 1557 1558 1558 1558 1558
1528 1530 1531 1533 1535 1536 1538 1539 1540 1542 1544 1546 1548 1549 1550 1551 1550 1551 1552 1552 1553 1553 1554 1555 1555 1556 1556 1556 1556 1557 1557 1558 1558 1557 1557 1557 1556 1556 1556 1556 1557 1557 1557
1526 1527 1528 1530 1531 1533 1534 1535 1536 1538 1540 1542 1544 1546 1547 1547 1548 1549 1549 1550 1551 1552 1553 1554 1554 1555 1555 1555 1556 1556 1557 1557 1557 1557 1557 1557 1556 1556 1556 1556 1556 1556 1556
1524 1525 1526 1527 1528 1529 1530 1531 1531 1533 1535 1538 1540 1541 1544 1544 1545 1546 1547 1548 1549 1550 1551 1552 1553 1554 1554 1555 1555 1556 1556 1557 1557 1557 1557 1556 1556 1556 1556 1555 1555 1555 1554
1521 1522 1523 1524 1525 1525 1526 1526 1527 1529 1531 1533 1535 1536 1538 1540 1542 1543 1544 1545 1546 1548 1549 1550 1551 1552 1553 1554 1554 1554 1555 1555 1556 1556 1556 1556 1555 1555 1555 1554 1554 1554 1553
1518 1519 1520 1521 1521 1522 1522 1522 1523 1524 1526 1528 1529 1531 1532 1535 1537 1539 1540 1542 1543 1545 1546 1547 1549 1550 1551 1552 1552 1553 1553 1554 1554 1555 1555 1555 1554 1554 1553 1553 1552 1552 1551
1516 1517 1518 1518 1518 1518 1518 1518 1519 1520 1521 1522 1524 1525 1527 1529 1532 1534 1537 1538 1540 1542 1543 1544 1546 1547 1548 1549 1550 1551 1551 1551 1552 1552 1553 1553 1553 1552 1551 1551 1550 1549 1549
1514 1515 1515 1515 1515 1515 1515 1515 1515 1516 1517 1517 1518 1520 1521 1523 1526 1529 1532 1535 1537 1538 1539 1541 1542 1544 1545 1547 1548 1548 1549 1549 1550 1550 1551 1551 1550 1550 1549 1549 1548 1547 1546
1512 1513 1513 1513 1513 1513 1512 1512 1512 1512 1512 1513 1514 1515 1517 1519 1521 1524 1527 1530 1533 1534 1535 1537 1539 1541 1542 1544 1545 1545 1546 1547 1547 1548 1548 1549 1548 1548 1547 1547 1546 1544 1543
1510 1511 1510 1511 1511 1511 1511 1510 1510 1509 1509 1509 1510 1511 1513 1515 1517 1519 1522 1525 1527 1530 1531 1532 1534 1536 1538 1540 1541 1542 1543 1544 1545 1546 1546 1546 1546 1546 1545 1545 1544 1542 1541
1508 1508 1508 1509 1509 1509 1509 1509 1508 1507 1507 1507 1507 1508 1510 1511 1513 1515 1517 1519 1521 1524 1525 1527 1529 1532 1534 1535 1537 1539 1540 1541 1542 1543 1544 1544 1544 1544 1543 1542 1541 1540 1539
1506 1507 1507 1507 1507 1508 1508 1508 1507 1506 1505 1505 1505 1506 1507 1508 1509 1510 1512 1513 1516 1518 1520 1522 1524 1527 1529 1530 1532 1534 1536 1537 1538 1540 1540 1541 1541 1541 1540 1539 1538 1537 1537
1504 1505 1505 1505 1506 1506 1506 1506 1506 1505 1504 1504 1504 1504 1504 1505 1506 1506 1507 1509 1510 1512 1514 1516 1518 1521 1523 1525 1527 1529 1531 1533 1534 1535 1536 1537 1537 1537 1537 1536 1536 1535 1534
1502 1503 1503 1504 1504 1504 1504 1505 1505 1504 1504 1503 1503 1503 1502 1503 1503 1503 1504 1505 1506 1507 1509 1510 1513 1515 1517 1520 1522 1524 1527 1528 1530 1531 1532 1532 1533 1533 1533 1533 1532 1532 1531
1499 1500 1500 1501 1501 1502 1502 1503 1503 1503 1502 1502 1502 1502 1502 1502 1502 1502 1502 1503 1503 1504 1505 1505 1507 1509 1512 1514 1517 1519 1522 1523 1525 1526 1527 1527 1528 1528 1528 1528 1528 1528 1527
1496 1496 1497 1497 1497 1498 1499 1500 1500 1500 1501 1501 1501 1501 1501 1501 1501 1501 1501 1501 1501 1501 1502 1502 1503 1504 1506 1508 1512 1514 1516 1518 1520 1521 1522 1522 1523 1522 1523 1523 1523 1523 1523
1492 1493 1493 1493 1494 1495 1495 1496 1497 1497 1498 1498 1499 1499 1500 1500 1500 1500 1500 1500 1500 1500 1500 1501 1500 1500 1502 1503 1506 1508 1510 1512 1514 1516 1516 1516 1517 1517 1518 1518 1518 1517 1518
1489 1489 1489 1489 1489 1490 1491 1492 1492 1493 1494 1495 1496 1497 1498 1499 1499 1499 1499 1499 1499 1498 1498 1498 1499 1499 1499 1500 1501 1503 1505 1507 1509 1511 1511 1511 1511 1512 1513 1512 1513 1513 1513
1487 1486 1486 1485 1485 1486 1486 1487 1488 1489 1490 1492 1493 1493 1495 1496 1497 1497 1497 1497 1497 1497 1497 1497 1497 1498 1498 1499 1500 1501 1502 1504 1505 1506 1506 1506 1506 1506 1506 1507 1508 1508 1508
1487 1486 1484 1483 1483 1483 1483 1483 1484 1485 1486 1488 1489 1490 1491 1492 1494 1494 1495 1495 1496 1496 1496 1495 1496 1496 1497 1498 1498 1499 1500 1501 1501 1502 1502 1502 1502 1502 1502 1502 1502 1503 1504